contact:dominique.lefevre@mio.osupytheas.fr, maurice.libes@osupytheas.fr, didier.mallarino@osupytheas.fr
Project:EMSO http://www.emso-fr.org/EMSO-France
Depth: 2436.0 m
Title:EMSO Ligure Ouest : Data MII capteur MICROCAT
DateTime_Computer,Latitude,Longitude,Temperature,Conductivity,Pressure,DateTime_Instrument
DateTime_Computer,Latitude,Longitude,degC,S m-1,dbar,DateTime_Instrument
2019-10-06T00:01:10Z,42.805,6.029,13.2962,4.59957,2469.937,2019-10-06T02:01:35Z
2019-10-06T00:04:14Z,42.805,6.029,13.2959,4.59958,2469.9,2019-10-06T02:04:38Z
2019-10-06T00:07:17Z,42.805,6.029,13.2962,4.59958,2469.9,2019-10-06T02:07:41Z
2019-10-06T00:10:20Z,42.805,6.029,13.2964,4.59957,2469.96,2019-10-06T02:10:45Z
2019-10-06T00:13:23Z,42.805,6.029,13.2964,4.59957,2469.909,2019-10-06T02:13:48Z
2019-10-06T00:16:27Z,42.805,6.029,13.2961,4.59961,2469.914,2019-10-06T02:16:51Z
2019-10-06T00:19:30Z,42.805,6.029,13.2960,4.59962,2469.923,2019-10-06T02:19:54Z
2019-10-06T00:22:33Z,42.805,6.029,13.2959,4.59958,2469.923,2019-10-06T02:22:58Z
2019-10-06T00:25:36Z,42.805,6.029,13.2965,4.59958,2469.96,2019-10-06T02:26:01Z
2019-10-06T00:28:40Z,42.805,6.029,13.2964,4.59958,2469.9,2019-10-06T02:29:04Z
2019-10-06T00:31:43Z,42.805,6.029,13.2958,4.59957,2469.923,2019-10-06T02:32:08Z
2019-10-06T00:34:46Z,42.805,6.029,13.2962,4.59958,2469.947,2019-10-06T02:35:11Z
2019-10-06T00:37:49Z,42.805,6.029,13.2958,4.59958,2469.923,2019-10-06T02:38:14Z
2019-10-06T00:40:53Z,42.805,6.029,13.2958,4.59958,2469.96,2019-10-06T02:41:17Z
2019-10-06T00:43:56Z,42.805,6.029,13.2961,4.59958,2469.947,2019-10-06T02:44:20Z
2019-10-06T00:46:59Z,42.805,6.029,13.2959,4.59958,2469.923,2019-10-06T02:47:24Z
2019-10-06T00:50:02Z,42.805,6.029,13.2960,4.59958,2469.923,2019-10-06T02:50:27Z
2019-10-06T00:53:05Z,42.805,6.029,13.2962,4.59960,2469.9,2019-10-06T02:53:30Z
2019-10-06T00:56:09Z,42.805,6.029,13.2957,4.59958,2469.937,2019-10-06T02:56:33Z
2019-10-06T00:59:12Z,42.805,6.029,13.2959,4.59958,2469.923,2019-10-06T02:59:37Z
2019-10-06T01:02:15Z,42.805,6.029,13.2964,4.59957,2469.923,2019-10-06T03:02:40Z
2019-10-06T01:05:18Z,42.805,6.029,13.2961,4.59956,2469.96,2019-10-06T03:05:43Z
2019-10-06T01:08:22Z,42.805,6.029,13.2964,4.59958,2469.9,2019-10-06T03:08:46Z
2019-10-06T01:11:25Z,42.805,6.029,13.2961,4.59961,2469.923,2019-10-06T03:11:49Z
2019-10-06T01:14:28Z,42.805,6.029,13.2960,4.59958,2469.937,2019-10-06T03:14:53Z
2019-10-06T01:17:31Z,42.805,6.029,13.2961,4.59956,2469.9,2019-10-06T03:17:56Z
2019-10-06T01:20:34Z,42.805,6.029,13.2958,4.59957,2469.876,2019-10-06T03:20:59Z
2019-10-06T01:23:38Z,42.805,6.029,13.2958,4.59957,2469.914,2019-10-06T03:24:02Z
2019-10-06T01:26:41Z,42.805,6.029,13.2960,4.59956,2469.937,2019-10-06T03:27:05Z
2019-10-06T01:29:44Z,42.805,6.029,13.2961,4.59957,2469.923,2019-10-06T03:30:09Z
2019-10-06T01:32:47Z,42.805,6.029,13.2961,4.59959,2469.914,2019-10-06T03:33:12Z
2019-10-06T01:35:50Z,42.805,6.029,13.2958,4.59958,2469.914,2019-10-06T03:36:15Z
2019-10-06T01:38:54Z,42.805,6.029,13.2961,4.59957,2469.914,2019-10-06T03:39:18Z
2019-10-06T01:41:57Z,42.805,6.029,13.2957,4.59958,2469.9,2019-10-06T03:42:22Z
2019-10-06T01:45:00Z,42.805,6.029,13.2958,4.59956,2469.923,2019-10-06T03:45:25Z
2019-10-06T01:48:03Z,42.805,6.029,13.2961,4.59957,2469.923,2019-10-06T03:48:28Z
2019-10-06T01:51:07Z,42.805,6.029,13.2961,4.59957,2469.937,2019-10-06T03:51:31Z
2019-10-06T01:54:10Z,42.805,6.029,13.2959,4.59958,2469.914,2019-10-06T03:54:34Z
2019-10-06T01:57:13Z,42.805,6.029,13.2958,4.59958,2469.937,2019-10-06T03:57:38Z
2019-10-06T02:00:16Z,42.805,6.029,13.2961,4.59956,2469.9,2019-10-06T04:00:41Z
2019-10-06T02:03:19Z,42.805,6.029,13.2961,4.59958,2469.914,2019-10-06T04:03:44Z
2019-10-06T02:06:23Z,42.805,6.029,13.2958,4.59958,2469.923,2019-10-06T04:06:47Z
2019-10-06T02:09:26Z,42.805,6.029,13.2957,4.59958,2469.937,2019-10-06T04:09:51Z
2019-10-06T02:12:29Z,42.805,6.029,13.2959,4.59958,2469.853,2019-10-06T04:12:54Z
2019-10-06T02:15:32Z,42.805,6.029,13.2964,4.59957,2469.9,2019-10-06T04:15:57Z
2019-10-06T02:18:35Z,42.805,6.029,13.2961,4.59957,2469.876,2019-10-06T04:19:00Z
2019-10-06T02:21:39Z,42.805,6.029,13.2959,4.59956,2469.876,2019-10-06T04:22:03Z
2019-10-06T02:24:42Z,42.805,6.029,13.2961,4.59957,2469.937,2019-10-06T04:25:06Z
2019-10-06T02:27:45Z,42.805,6.029,13.2961,4.59957,2469.914,2019-10-06T04:28:10Z
2019-10-06T02:30:48Z,42.805,6.029,13.2961,4.59958,2469.937,2019-10-06T04:31:13Z
2019-10-06T02:33:51Z,42.805,6.029,13.2957,4.59958,2469.9,2019-10-06T04:34:16Z
2019-10-06T02:36:55Z,42.805,6.029,13.2957,4.59956,2469.914,2019-10-06T04:37:19Z
2019-10-06T02:39:58Z,42.805,6.029,13.2962,4.59957,2469.923,2019-10-06T04:40:23Z
2019-10-06T02:43:01Z,42.805,6.029,13.2963,4.59956,2469.923,2019-10-06T04:43:26Z
2019-10-06T02:46:04Z,42.805,6.029,13.2962,4.59957,2469.867,2019-10-06T04:46:29Z
2019-10-06T02:49:07Z,42.805,6.029,13.2961,4.59961,2469.914,2019-10-06T04:49:32Z
2019-10-06T02:52:11Z,42.805,6.029,13.2964,4.59956,2469.9,2019-10-06T04:52:35Z
2019-10-06T02:55:14Z,42.805,6.029,13.2958,4.59957,2469.876,2019-10-06T04:55:39Z
2019-10-06T02:58:17Z,42.805,6.029,13.2962,4.59957,2469.923,2019-10-06T04:58:42Z
2019-10-06T03:01:20Z,42.805,6.029,13.2959,4.59958,2469.914,2019-10-06T05:01:45Z
2019-10-06T03:04:24Z,42.805,6.029,13.2958,4.59959,2469.876,2019-10-06T05:04:48Z
2019-10-06T03:07:27Z,42.805,6.029,13.2960,4.59957,2469.914,2019-10-06T05:07:51Z
2019-10-06T03:10:30Z,42.805,6.029,13.2959,4.59960,2469.89,2019-10-06T05:10:55Z
2019-10-06T03:13:33Z,42.805,6.029,13.2960,4.59957,2469.89,2019-10-06T05:13:58Z
2019-10-06T03:16:36Z,42.805,6.029,13.2964,4.59957,2469.89,2019-10-06T05:17:01Z
2019-10-06T03:19:40Z,42.805,6.029,13.2955,4.59958,2469.89,2019-10-06T05:20:04Z
2019-10-06T03:22:43Z,42.805,6.029,13.2960,4.59956,2469.853,2019-10-06T05:23:08Z
2019-10-06T03:25:46Z,42.805,6.029,13.2964,4.59958,2469.876,2019-10-06T05:26:11Z
2019-10-06T03:28:50Z,42.805,6.029,13.2961,4.59958,2469.923,2019-10-06T05:29:14Z
2019-10-06T03:31:53Z,42.805,6.029,13.2961,4.59957,2469.9,2019-10-06T05:32:18Z
2019-10-06T03:34:56Z,42.805,6.029,13.2961,4.59957,2469.914,2019-10-06T05:35:21Z
2019-10-06T03:37:59Z,42.805,6.029,13.2958,4.59956,2469.89,2019-10-06T05:38:24Z
2019-10-06T03:41:03Z,42.805,6.029,13.2963,4.59956,2469.914,2019-10-06T05:41:27Z
2019-10-06T03:44:06Z,42.805,6.029,13.2963,4.59958,2469.876,2019-10-06T05:44:30Z
2019-10-06T03:47:09Z,42.805,6.029,13.2961,4.59958,2469.89,2019-10-06T05:47:34Z
2019-10-06T03:50:12Z,42.805,6.029,13.2956,4.59959,2469.914,2019-10-06T05:50:37Z
2019-10-06T03:53:15Z,42.805,6.029,13.2963,4.59956,2469.89,2019-10-06T05:53:40Z
2019-10-06T03:56:19Z,42.805,6.029,13.2961,4.59959,2469.9,2019-10-06T05:56:43Z
2019-10-06T03:59:22Z,42.805,6.029,13.2961,4.59956,2469.876,2019-10-06T05:59:47Z
2019-10-06T04:02:25Z,42.805,6.029,13.2959,4.59961,2469.867,2019-10-06T06:02:50Z
2019-10-06T04:05:28Z,42.805,6.029,13.2960,4.59956,2469.876,2019-10-06T06:05:53Z
2019-10-06T04:08:32Z,42.805,6.029,13.2961,4.59956,2469.89,2019-10-06T06:08:56Z
2019-10-06T04:11:35Z,42.805,6.029,13.2960,4.59956,2469.914,2019-10-06T06:11:59Z
2019-10-06T04:14:38Z,42.805,6.029,13.2957,4.59957,2469.914,2019-10-06T06:15:03Z
2019-10-06T04:17:41Z,42.805,6.029,13.2962,4.59957,2469.867,2019-10-06T06:18:06Z
2019-10-06T04:20:44Z,42.805,6.029,13.2961,4.59957,2469.89,2019-10-06T06:21:09Z
2019-10-06T04:23:48Z,42.805,6.029,13.2959,4.59957,2469.89,2019-10-06T06:24:12Z
2019-10-06T04:26:51Z,42.805,6.029,13.2964,4.59956,2469.853,2019-10-06T06:27:16Z
2019-10-06T04:29:54Z,42.805,6.029,13.2960,4.59958,2469.876,2019-10-06T06:30:19Z
2019-10-06T04:32:57Z,42.805,6.029,13.2958,4.59956,2469.876,2019-10-06T06:33:22Z
2019-10-06T04:36:01Z,42.805,6.029,13.2961,4.59956,2469.9,2019-10-06T06:36:25Z
2019-10-06T04:39:04Z,42.805,6.029,13.2957,4.59958,2469.914,2019-10-06T06:39:28Z
2019-10-06T04:42:07Z,42.805,6.029,13.2960,4.59958,2469.89,2019-10-06T06:42:32Z
2019-10-06T04:45:10Z,42.805,6.029,13.2961,4.59957,2469.876,2019-10-06T06:45:35Z
2019-10-06T04:48:13Z,42.805,6.029,13.2961,4.59956,2469.876,2019-10-06T06:48:38Z
2019-10-06T04:51:17Z,42.805,6.029,13.2958,4.59956,2469.89,2019-10-06T06:51:41Z
2019-10-06T04:54:20Z,42.805,6.029,13.2963,4.59958,2469.853,2019-10-06T06:54:44Z
2019-10-06T04:57:23Z,42.805,6.029,13.2964,4.59957,2469.9,2019-10-06T06:57:48Z
2019-10-06T05:00:26Z,42.805,6.029,13.2962,4.59956,2469.876,2019-10-06T07:00:51Z
2019-10-06T05:03:29Z,42.805,6.029,13.2962,4.59956,2469.876,2019-10-06T07:03:54Z
2019-10-06T05:06:33Z,42.805,6.029,13.2961,4.59956,2469.867,2019-10-06T07:06:57Z
2019-10-06T05:09:36Z,42.805,6.029,13.2961,4.59956,2469.867,2019-10-06T07:10:00Z
2019-10-06T05:12:39Z,42.805,6.029,13.2957,4.59956,2469.89,2019-10-06T07:13:04Z
2019-10-06T05:15:42Z,42.805,6.029,13.2960,4.59956,2469.876,2019-10-06T07:16:07Z
2019-10-06T05:18:45Z,42.805,6.029,13.2960,4.59956,2469.9,2019-10-06T07:19:10Z
2019-10-06T05:21:49Z,42.805,6.029,13.2964,4.59956,2469.9,2019-10-06T07:22:13Z
2019-10-06T05:24:52Z,42.805,6.029,13.2960,4.59956,2469.89,2019-10-06T07:25:16Z
2019-10-06T05:27:55Z,42.805,6.029,13.2963,4.59956,2469.853,2019-10-06T07:28:20Z
2019-10-06T05:30:58Z,42.805,6.029,13.2958,4.59957,2469.9,2019-10-06T07:31:23Z
2019-10-06T05:34:01Z,42.805,6.029,13.2962,4.59955,2469.853,2019-10-06T07:34:26Z
2019-10-06T05:37:05Z,42.805,6.029,13.2960,4.59956,2469.853,2019-10-06T07:37:29Z
2019-10-06T05:40:08Z,42.805,6.029,13.2959,4.59956,2469.876,2019-10-06T07:40:33Z
2019-10-06T05:43:11Z,42.805,6.029,13.2961,4.59956,2469.876,2019-10-06T07:43:36Z
2019-10-06T05:46:14Z,42.805,6.029,13.2960,4.59956,2469.867,2019-10-06T07:46:39Z
2019-10-06T05:49:18Z,42.805,6.029,13.2960,4.59957,2469.853,2019-10-06T07:49:42Z
2019-10-06T05:52:21Z,42.805,6.029,13.2957,4.59956,2469.83,2019-10-06T07:52:45Z
2019-10-06T05:55:24Z,42.805,6.029,13.2961,4.59956,2469.853,2019-10-06T07:55:49Z
2019-10-06T05:58:27Z,42.805,6.029,13.2958,4.59957,2469.867,2019-10-06T07:58:52Z
2019-10-06T06:01:30Z,42.805,6.029,13.2961,4.59956,2469.89,2019-10-06T08:01:55Z
2019-10-06T06:04:34Z,42.805,6.029,13.2959,4.59956,2469.876,2019-10-06T08:04:58Z
2019-10-06T06:07:37Z,42.805,6.029,13.2961,4.59956,2469.867,2019-10-06T08:08:01Z
2019-10-06T06:10:40Z,42.805,6.029,13.2957,4.59956,2469.853,2019-10-06T08:11:05Z
2019-10-06T06:13:43Z,42.805,6.029,13.2959,4.59956,2469.876,2019-10-06T08:14:08Z
2019-10-06T06:16:46Z,42.805,6.029,13.2954,4.59956,2469.853,2019-10-06T08:17:11Z
2019-10-06T06:19:50Z,42.805,6.029,13.2963,4.59956,2469.853,2019-10-06T08:20:14Z
2019-10-06T06:22:53Z,42.805,6.029,13.2955,4.59958,2469.876,2019-10-06T08:23:17Z
2019-10-06T06:25:56Z,42.805,6.029,13.2959,4.59956,2469.89,2019-10-06T08:26:21Z
2019-10-06T06:28:59Z,42.805,6.029,13.2962,4.59956,2469.853,2019-10-06T08:29:24Z
2019-10-06T06:32:02Z,42.805,6.029,13.2960,4.59956,2469.876,2019-10-06T08:32:27Z
2019-10-06T06:35:06Z,42.805,6.029,13.2962,4.59956,2469.89,2019-10-06T08:35:30Z
2019-10-06T06:38:09Z,42.805,6.029,13.2959,4.59956,2469.89,2019-10-06T08:38:34Z
2019-10-06T06:41:12Z,42.805,6.029,13.2958,4.59956,2469.89,2019-10-06T08:41:37Z
2019-10-06T06:44:15Z,42.805,6.029,13.2961,4.59958,2469.867,2019-10-06T08:44:40Z
2019-10-06T06:47:18Z,42.805,6.029,13.2958,4.59958,2469.853,2019-10-06T08:47:43Z
2019-10-06T06:50:22Z,42.805,6.029,13.2958,4.59956,2469.876,2019-10-06T08:50:46Z
2019-10-06T06:53:25Z,42.805,6.029,13.2962,4.59956,2469.876,2019-10-06T08:53:50Z
2019-10-06T06:56:28Z,42.805,6.029,13.2958,4.59956,2469.853,2019-10-06T08:56:53Z
2019-10-06T06:59:31Z,42.805,6.029,13.2962,4.59956,2469.853,2019-10-06T08:59:56Z
2019-10-06T07:02:34Z,42.805,6.029,13.2961,4.59956,2469.853,2019-10-06T09:02:59Z
2019-10-06T07:05:38Z,42.805,6.029,13.2958,4.59956,2469.876,2019-10-06T09:06:02Z
2019-10-06T07:08:41Z,42.805,6.029,13.2959,4.59956,2469.867,2019-10-06T09:09:06Z
2019-10-06T07:11:44Z,42.805,6.029,13.2958,4.59956,2469.853,2019-10-06T09:12:09Z
2019-10-06T07:14:48Z,42.805,6.029,13.2961,4.59956,2469.867,2019-10-06T09:15:12Z
2019-10-06T07:17:51Z,42.805,6.029,13.2960,4.59956,2469.89,2019-10-06T09:18:16Z
2019-10-06T07:20:54Z,42.805,6.029,13.2959,4.59956,2469.876,2019-10-06T09:21:19Z
2019-10-06T07:23:57Z,42.805,6.029,13.2961,4.59957,2469.914,2019-10-06T09:24:22Z
2019-10-06T07:27:01Z,42.805,6.029,13.2953,4.59956,2469.89,2019-10-06T09:27:25Z
2019-10-06T07:30:04Z,42.805,6.029,13.2961,4.59956,2469.844,2019-10-06T09:30:29Z
2019-10-06T07:33:07Z,42.805,6.029,13.2960,4.59956,2469.876,2019-10-06T09:33:32Z
2019-10-06T07:36:10Z,42.805,6.029,13.2958,4.59956,2469.867,2019-10-06T09:36:35Z
2019-10-06T07:39:14Z,42.805,6.029,13.2961,4.59956,2469.876,2019-10-06T09:39:38Z
2019-10-06T07:42:17Z,42.805,6.029,13.2961,4.59956,2469.9,2019-10-06T09:42:41Z
2019-10-06T07:45:20Z,42.805,6.029,13.2960,4.59956,2469.876,2019-10-06T09:45:45Z
2019-10-06T07:48:23Z,42.805,6.029,13.2960,4.59956,2469.876,2019-10-06T09:48:48Z
2019-10-06T07:51:26Z,42.805,6.029,13.2961,4.59958,2469.867,2019-10-06T09:51:51Z
2019-10-06T07:54:30Z,42.805,6.029,13.2958,4.59956,2469.867,2019-10-06T09:54:54Z
2019-10-06T07:57:33Z,42.805,6.029,13.2961,4.59957,2469.937,2019-10-06T09:57:58Z
2019-10-06T08:00:36Z,42.805,6.029,13.2959,4.59956,2469.853,2019-10-06T10:01:01Z
2019-10-06T08:03:39Z,42.805,6.029,13.2962,4.59958,2469.876,2019-10-06T10:04:04Z
2019-10-06T08:06:42Z,42.805,6.029,13.2961,4.59957,2469.853,2019-10-06T10:07:07Z
2019-10-06T08:09:46Z,42.805,6.029,13.2957,4.59956,2469.853,2019-10-06T10:10:10Z
2019-10-06T08:12:49Z,42.805,6.029,13.2956,4.59956,2469.853,2019-10-06T10:13:13Z
2019-10-06T08:15:52Z,42.805,6.029,13.2957,4.59958,2469.89,2019-10-06T10:16:17Z
2019-10-06T08:18:55Z,42.805,6.029,13.2959,4.59959,2469.914,2019-10-06T10:19:20Z
2019-10-06T08:21:59Z,42.805,6.029,13.2961,4.59956,2469.876,2019-10-06T10:22:23Z
2019-10-06T08:25:02Z,42.805,6.029,13.2957,4.59957,2469.904,2019-10-06T10:25:26Z
2019-10-06T08:28:05Z,42.805,6.029,13.2963,4.59957,2469.876,2019-10-06T10:28:30Z
2019-10-06T08:31:08Z,42.805,6.029,13.2964,4.59956,2469.9,2019-10-06T10:31:33Z
2019-10-06T08:34:11Z,42.805,6.029,13.2961,4.59957,2469.853,2019-10-06T10:34:36Z
2019-10-06T08:37:15Z,42.805,6.029,13.2958,4.59956,2469.853,2019-10-06T10:37:39Z
2019-10-06T08:40:18Z,42.805,6.029,13.2958,4.59956,2469.89,2019-10-06T10:40:42Z
2019-10-06T08:43:21Z,42.805,6.029,13.2960,4.59956,2469.89,2019-10-06T10:43:46Z
2019-10-06T08:46:24Z,42.805,6.029,13.2958,4.59956,2469.9,2019-10-06T10:46:49Z
2019-10-06T08:49:27Z,42.805,6.029,13.2961,4.59956,2469.914,2019-10-06T10:49:52Z
2019-10-06T08:52:30Z,42.805,6.029,13.2961,4.59957,2469.876,2019-10-06T10:52:55Z
2019-10-06T08:55:34Z,42.805,6.029,13.2964,4.59957,2469.923,2019-10-06T10:55:58Z
2019-10-06T08:58:37Z,42.805,6.029,13.2961,4.59957,2469.9,2019-10-06T10:59:02Z
2019-10-06T09:01:40Z,42.805,6.029,13.2961,4.59958,2469.9,2019-10-06T11:02:05Z
2019-10-06T09:04:44Z,42.805,6.029,13.2960,4.59960,2469.9,2019-10-06T11:05:08Z
2019-10-06T09:07:47Z,42.805,6.029,13.2959,4.59956,2469.9,2019-10-06T11:08:12Z
2019-10-06T09:10:50Z,42.805,6.029,13.2958,4.59956,2469.937,2019-10-06T11:11:15Z
2019-10-06T09:13:53Z,42.805,6.029,13.2963,4.59957,2469.914,2019-10-06T11:14:18Z
2019-10-06T09:16:56Z,42.805,6.029,13.2962,4.59958,2469.876,2019-10-06T11:17:21Z
2019-10-06T09:20:00Z,42.805,6.029,13.2963,4.59957,2469.914,2019-10-06T11:20:24Z
2019-10-06T09:23:03Z,42.805,6.029,13.2961,4.59957,2469.89,2019-10-06T11:23:28Z
2019-10-06T09:26:06Z,42.805,6.029,13.2959,4.59958,2469.9,2019-10-06T11:26:31Z
2019-10-06T09:29:09Z,42.805,6.029,13.2962,4.59961,2469.923,2019-10-06T11:29:34Z
2019-10-06T09:32:13Z,42.805,6.029,13.2962,4.59958,2469.9,2019-10-06T11:32:37Z
2019-10-06T09:35:16Z,42.805,6.029,13.2961,4.59958,2469.923,2019-10-06T11:35:41Z
2019-10-06T09:38:19Z,42.805,6.029,13.2964,4.59957,2469.9,2019-10-06T11:38:44Z
2019-10-06T09:41:22Z,42.805,6.029,13.2959,4.59958,2469.937,2019-10-06T11:41:47Z
2019-10-06T09:44:25Z,42.805,6.029,13.2961,4.59957,2469.9,2019-10-06T11:44:50Z
2019-10-06T09:47:29Z,42.805,6.029,13.2958,4.59958,2469.914,2019-10-06T11:47:53Z
2019-10-06T09:50:32Z,42.805,6.029,13.2955,4.59957,2469.923,2019-10-06T11:50:57Z
2019-10-06T09:53:35Z,42.805,6.029,13.2960,4.59957,2469.937,2019-10-06T11:54:00Z
2019-10-06T09:56:38Z,42.805,6.029,13.2967,4.59958,2469.923,2019-10-06T11:57:03Z
2019-10-06T09:59:42Z,42.805,6.029,13.2960,4.59957,2469.923,2019-10-06T12:00:06Z
2019-10-06T10:02:45Z,42.805,6.029,13.2961,4.59957,2469.9,2019-10-06T12:03:09Z
2019-10-06T10:05:48Z,42.805,6.029,13.2962,4.59957,2469.937,2019-10-06T12:06:13Z
2019-10-06T10:08:51Z,42.805,6.029,13.2959,4.59958,2469.937,2019-10-06T12:09:16Z
2019-10-06T10:11:54Z,42.805,6.029,13.2962,4.59960,2469.9,2019-10-06T12:12:19Z
2019-10-06T10:14:58Z,42.805,6.029,13.2958,4.59958,2469.937,2019-10-06T12:15:22Z
2019-10-06T10:18:01Z,42.805,6.029,13.2961,4.59957,2469.9,2019-10-06T12:18:25Z
2019-10-06T10:21:04Z,42.805,6.029,13.2962,4.59959,2469.937,2019-10-06T12:21:29Z
2019-10-06T10:24:07Z,42.805,6.029,13.2965,4.59958,2469.923,2019-10-06T12:24:32Z
2019-10-06T10:27:10Z,42.805,6.029,13.2964,4.59957,2469.923,2019-10-06T12:27:35Z
2019-10-06T10:30:14Z,42.805,6.029,13.2962,4.59958,2469.96,2019-10-06T12:30:38Z
2019-10-06T10:33:17Z,42.805,6.029,13.2960,4.59958,2469.937,2019-10-06T12:33:42Z
2019-10-06T10:36:20Z,42.805,6.029,13.2958,4.59958,2469.947,2019-10-06T12:36:45Z
2019-10-06T10:39:23Z,42.805,6.029,13.2962,4.59957,2469.937,2019-10-06T12:39:48Z
2019-10-06T10:42:26Z,42.805,6.029,13.2960,4.59958,2469.947,2019-10-06T12:42:51Z
2019-10-06T10:45:30Z,42.805,6.029,13.2959,4.59960,2469.97,2019-10-06T12:45:54Z
2019-10-06T10:48:33Z,42.805,6.029,13.2962,4.59958,2469.97,2019-10-06T12:48:58Z
2019-10-06T10:51:36Z,42.805,6.029,13.2959,4.59958,2469.947,2019-10-06T12:52:01Z
2019-10-06T10:54:39Z,42.805,6.029,13.2961,4.59960,2469.96,2019-10-06T12:55:04Z
2019-10-06T10:57:43Z,42.805,6.029,13.2963,4.59958,2469.96,2019-10-06T12:58:07Z
2019-10-06T11:00:46Z,42.805,6.029,13.2962,4.59958,2469.97,2019-10-06T13:01:10Z
2019-10-06T11:03:49Z,42.805,6.029,13.2961,4.59958,2469.947,2019-10-06T13:04:14Z
2019-10-06T11:06:52Z,42.805,6.029,13.2964,4.59959,2469.937,2019-10-06T13:07:17Z
2019-10-06T11:09:55Z,42.805,6.029,13.2964,4.59958,2469.97,2019-10-06T13:10:20Z
2019-10-06T11:12:59Z,42.805,6.029,13.2964,4.59958,2469.96,2019-10-06T13:13:23Z
2019-10-06T11:16:02Z,42.805,6.029,13.2963,4.59958,2469.96,2019-10-06T13:16:27Z
2019-10-06T11:19:05Z,42.805,6.029,13.2966,4.59958,2469.947,2019-10-06T13:19:30Z
2019-10-06T11:22:08Z,42.805,6.029,13.2964,4.59958,2469.96,2019-10-06T13:22:33Z
2019-10-06T11:25:11Z,42.805,6.029,13.2959,4.59958,2469.96,2019-10-06T13:25:36Z
2019-10-06T11:28:15Z,42.805,6.029,13.2961,4.59958,2469.97,2019-10-06T13:28:39Z
2019-10-06T11:31:18Z,42.805,6.029,13.2961,4.59964,2469.993,2019-10-06T13:31:43Z
2019-10-06T11:34:21Z,42.805,6.029,13.2963,4.59958,2469.947,2019-10-06T13:34:46Z
2019-10-06T11:37:24Z,42.805,6.029,13.2962,4.59958,2469.97,2019-10-06T13:37:49Z
2019-10-06T11:40:28Z,42.805,6.029,13.2962,4.59958,2469.923,2019-10-06T13:40:52Z
2019-10-06T11:43:31Z,42.805,6.029,13.2965,4.59962,2469.96,2019-10-06T13:43:55Z
2019-10-06T11:46:34Z,42.805,6.029,13.2964,4.59958,2469.97,2019-10-06T13:46:59Z
2019-10-06T11:49:37Z,42.805,6.029,13.2964,4.59958,2469.97,2019-10-06T13:50:02Z
2019-10-06T11:52:40Z,42.805,6.029,13.2960,4.59958,2469.96,2019-10-06T13:53:05Z
2019-10-06T11:55:44Z,42.805,6.029,13.2962,4.59958,2469.947,2019-10-06T13:56:08Z
2019-10-06T11:58:47Z,42.805,6.029,13.2961,4.59958,2469.993,2019-10-06T13:59:12Z
2019-10-06T12:01:50Z,42.805,6.029,13.2964,4.59958,2469.947,2019-10-06T14:02:15Z
2019-10-06T12:04:53Z,42.805,6.029,13.2967,4.59958,2469.96,2019-10-06T14:05:18Z
2019-10-06T12:07:56Z,42.805,6.029,13.2961,4.59958,2469.937,2019-10-06T14:08:21Z
2019-10-06T12:11:00Z,42.805,6.029,13.2961,4.59961,2469.947,2019-10-06T14:11:24Z
2019-10-06T12:14:03Z,42.805,6.029,13.2967,4.59958,2469.97,2019-10-06T14:14:27Z
2019-10-06T12:17:06Z,42.805,6.029,13.2958,4.59960,2470.007,2019-10-06T14:17:31Z
2019-10-06T12:20:09Z,42.805,6.029,13.2963,4.59958,2470.03,2019-10-06T14:20:34Z
2019-10-06T12:23:12Z,42.805,6.029,13.2964,4.59960,2469.97,2019-10-06T14:23:37Z
2019-10-06T12:26:16Z,42.805,6.029,13.2960,4.59963,2469.993,2019-10-06T14:26:40Z
2019-10-06T12:29:19Z,42.805,6.029,13.2967,4.59958,2469.984,2019-10-06T14:29:44Z
2019-10-06T12:32:22Z,42.805,6.029,13.2961,4.59958,2469.984,2019-10-06T14:32:47Z
2019-10-06T12:35:26Z,42.805,6.029,13.2964,4.59958,2469.97,2019-10-06T14:35:50Z
2019-10-06T12:38:29Z,42.805,6.029,13.2962,4.59958,2469.984,2019-10-06T14:38:53Z
2019-10-06T12:41:32Z,42.805,6.029,13.2966,4.59960,2469.97,2019-10-06T14:41:57Z
2019-10-06T12:44:35Z,42.805,6.029,13.2961,4.59958,2469.984,2019-10-06T14:45:00Z
2019-10-06T12:47:38Z,42.805,6.029,13.2962,4.59958,2469.993,2019-10-06T14:48:03Z
2019-10-06T12:50:42Z,42.805,6.029,13.2966,4.59959,2469.984,2019-10-06T14:51:06Z
2019-10-06T12:53:45Z,42.805,6.029,13.2962,4.59958,2469.984,2019-10-06T14:54:10Z
2019-10-06T12:56:48Z,42.805,6.029,13.2960,4.59961,2469.97,2019-10-06T14:57:13Z
2019-10-06T12:59:51Z,42.805,6.029,13.2965,4.59959,2470.007,2019-10-06T15:00:16Z
2019-10-06T13:02:55Z,42.805,6.029,13.2960,4.59959,2469.984,2019-10-06T15:03:19Z
2019-10-06T13:05:58Z,42.805,6.029,13.2966,4.59958,2469.97,2019-10-06T15:06:22Z
2019-10-06T13:09:01Z,42.805,6.029,13.2965,4.59959,2469.97,2019-10-06T15:09:26Z
2019-10-06T13:12:04Z,42.805,6.029,13.2966,4.59959,2469.97,2019-10-06T15:12:29Z
2019-10-06T13:15:07Z,42.805,6.029,13.2965,4.59960,2470.007,2019-10-06T15:15:32Z
2019-10-06T13:18:11Z,42.805,6.029,13.2960,4.59960,2470.017,2019-10-06T15:18:35Z
2019-10-06T13:21:14Z,42.805,6.029,13.2964,4.59962,2470.03,2019-10-06T15:21:38Z
2019-10-06T13:24:17Z,42.805,6.029,13.2964,4.59961,2469.97,2019-10-06T15:24:42Z
2019-10-06T13:27:20Z,42.805,6.029,13.2961,4.59959,2470.003,2019-10-06T15:27:45Z
2019-10-06T13:30:24Z,42.805,6.029,13.2962,4.59959,2470.007,2019-10-06T15:30:48Z
2019-10-06T13:33:27Z,42.805,6.029,13.2960,4.59960,2469.993,2019-10-06T15:33:52Z
2019-10-06T13:36:30Z,42.805,6.029,13.2964,4.59961,2470.007,2019-10-06T15:36:55Z
2019-10-06T13:39:33Z,42.805,6.029,13.2963,4.59960,2469.993,2019-10-06T15:39:58Z
2019-10-06T13:42:37Z,42.805,6.029,13.2963,4.59960,2469.97,2019-10-06T15:43:01Z
2019-10-06T13:45:40Z,42.805,6.029,13.2961,4.59960,2469.993,2019-10-06T15:46:04Z
2019-10-06T13:48:43Z,42.805,6.029,13.2960,4.59959,2469.947,2019-10-06T15:49:08Z
2019-10-06T13:51:46Z,42.805,6.029,13.2965,4.59960,2469.993,2019-10-06T15:52:11Z
2019-10-06T13:54:49Z,42.805,6.029,13.2963,4.59960,2469.97,2019-10-06T15:55:14Z
2019-10-06T13:57:53Z,42.805,6.029,13.2962,4.59960,2469.97,2019-10-06T15:58:17Z
2019-10-06T14:00:56Z,42.805,6.029,13.2962,4.59959,2469.956,2019-10-06T16:01:21Z
2019-10-06T14:03:59Z,42.805,6.029,13.2961,4.59960,2469.993,2019-10-06T16:04:24Z
2019-10-06T14:07:02Z,42.805,6.029,13.2962,4.59963,2469.97,2019-10-06T16:07:27Z
2019-10-06T14:10:05Z,42.805,6.029,13.2967,4.59960,2470.017,2019-10-06T16:10:30Z
2019-10-06T14:13:09Z,42.805,6.029,13.2964,4.59960,2469.947,2019-10-06T16:13:33Z
2019-10-06T14:16:12Z,42.805,6.029,13.2964,4.59960,2470.007,2019-10-06T16:16:37Z
2019-10-06T14:19:15Z,42.805,6.029,13.2963,4.59966,2469.993,2019-10-06T16:19:40Z
2019-10-06T14:22:18Z,42.805,6.029,13.2960,4.59966,2470.007,2019-10-06T16:22:43Z
2019-10-06T14:25:22Z,42.805,6.029,13.2959,4.59960,2470.007,2019-10-06T16:25:46Z
2019-10-06T14:28:25Z,42.805,6.029,13.2965,4.59961,2469.96,2019-10-06T16:28:49Z
2019-10-06T14:31:28Z,42.805,6.029,13.2962,4.59961,2469.993,2019-10-06T16:31:53Z
2019-10-06T14:34:31Z,42.805,6.029,13.2966,4.59960,2470.007,2019-10-06T16:34:56Z
2019-10-06T14:37:34Z,42.805,6.029,13.2961,4.59962,2469.97,2019-10-06T16:37:59Z
2019-10-06T14:40:38Z,42.805,6.029,13.2964,4.59961,2470.017,2019-10-06T16:41:02Z
2019-10-06T14:43:41Z,42.805,6.029,13.2962,4.59961,2470.017,2019-10-06T16:44:06Z
2019-10-06T14:46:44Z,42.805,6.029,13.2965,4.59961,2469.97,2019-10-06T16:47:09Z
2019-10-06T14:49:47Z,42.805,6.029,13.2965,4.59961,2469.97,2019-10-06T16:50:12Z
2019-10-06T14:52:51Z,42.805,6.029,13.2964,4.59961,2469.993,2019-10-06T16:53:15Z
2019-10-06T14:55:54Z,42.805,6.029,13.2961,4.59961,2470.007,2019-10-06T16:56:18Z
2019-10-06T14:58:57Z,42.805,6.029,13.2966,4.59961,2469.97,2019-10-06T16:59:22Z
2019-10-06T15:02:00Z,42.805,6.029,13.2965,4.59961,2469.993,2019-10-06T17:02:25Z